Tracking 19564 objects as of 18-Mar-2019
HD Live streaming from Space Station
objects crossing your sky now

RADUGA 32

Track RADUGA 32 now!
RADUGA 32 is classified as:


NORAD ID: 23448
Int'l Code: 1994-087A
Perigee: 35,766.1 km
Apogee: 35,818.8 km
Inclination: 14.7 °
Period: 1,436.0 minutes
Semi major axis: 42163 km
RCS: 3.107 m2 (large)
Launch date: December 28, 1994
Source: Commonwealth of Independent States (former USSR) (CIS)
Launch site: TYURATAM MISSILE AND SPACE COMPLEX (TTMTR)
aabbcc
Your satellite tracking list
Your tracking list is empty




NASA's NSSDC Master Catalog

Two Line Element Set (TLE):
1 23448U 94087A   19076.88382847 -.00000075 +00000-0 +00000-0 0  9993
2 23448 014.7334 012.6290 0006254 250.4698 300.4579 01.00276352106322
Source of the keplerian elements: AFSPC